FLOCK 4BE-27 (60513 NORAD) Tracking and Keplerian Element Data

This shows tracking and keplerian element data for the satellite.

Feedback or suggestion? Click here.




ElementValue
Catalog60513
NameFLOCK 4BE-27
Epoch Orbit864
Epoch Day286.74576006
Epoch Year2024
RAAN1.4878
Inclination97.4409
Eccentricity0.0004405
Argument of Perigee322.3033
Mean Anonmoly37.7892
Mean Motion15.19940539
Decay Rate0.00015101
L11 60513U 24149AX 24286.74576006 .00015101 00000+0 70444-3 0 9991
L22 60513 97.4409 1.4878 0004405 322.3033 37.7892 15.19940539 8647



Live tracking and technical data element details for FLOCK 4BE-27 (NORAD 60513). FLOCK 4BE-27 can be tracked NOW for your location showing map with azimuth and elevation plus other details from your city location.







IsCatalogInMostPopularTable: catalog: 60513, numindb: 6
Update: records affected: 1



GetName: 60513 FLOCK 4BE-27

Hit Count: updated at: Fri, 06 Dec 2024 11:09:52 GMT